Miscellaneous Local Product
Issued by NWS Hastings, NE

Home | Current Version | Previous Version | Graphics & Text | Print | Product List | Glossary On
Versions: 1 2 3 4 5 6 7 8 9 10 11 12 13 14 15 16 17 18 19 20 21 22 23 24 25 26 27 28 29 30 31 32 33 34 35 36 37 38 39 40 41 42 43 44 45 46 47 48 49 50
000
AXUS43 KGID 190602
MISGRI

GID CWA HOURLY WEATHER ROUNDUP
NATIONAL WEATHER SERVICE HASTINGS NE
1200 AM CST SUN NOV 19 2017

NOTE: "FAIR" INDICATES FEW OR NO CLOUDS BELOW 12,000 FEET WITH NO
SIGNIFICANT WEATHER AND/OR OBSTRUCTIONS TO VISIBILITY.

...SOUTH CENTRAL NEBRASKA...

CITY           SKY/WX    TMP DP  RH WIND       PRES   REMARKS
GRAND ISLAND   CLEAR     30  25  81 W6        30.22F WCI  24
KEARNEY        CLEAR     32  22  66 NW3       30.23S
HASTINGS       CLEAR     31  21  66 W6        30.23F WCI  25
ORD            CLEAR     30  22  72 NW5       30.19F WCI  25
YORK           CLEAR     27  27 100 CALM      30.22F
AURORA         CLEAR     27  23  87 CALM      30.21F
LEXINGTON      CLEAR     25  20  83 N3        30.24R
HOLDREGE       CLEAR     31  23  72 W9        30.23S WCI  23
HEBRON         CLEAR     30  24  80 W3        30.24S

...NEBRASKA PANHANDLE...

CITY           SKY/WX    TMP DP  RH WIND       PRES   REMARKS
CHADRON        CLOUDY    21  17  84 SW7       30.19S WCI  12
ALLIANCE       CLOUDY    17  13  84 W6        30.19F WCI   9
SCOTTSBLUFF    CLOUDY    22  15  75 NW5       30.21F WCI  16
SIDNEY         CLEAR     21  14  74 W8        30.23S WCI  11

...WESTERN AND NORTH CENTRAL NEBRASKA...

CITY           SKY/WX    TMP DP  RH WIND       PRES   REMARKS
VALENTINE      CLEAR     28  21  75 W6        30.17S WCI  22
AINSWORTH      CLOUDY    29  24  79 W8        30.17R WCI  21
ONEILL         CLEAR     26  23  89 S3        30.17S
BROKEN BOW     CLEAR     27  20  75 S6        30.20S WCI  20
IMPERIAL       CLEAR     27  17  66 W9        30.26S WCI  18
NORTH PLATTE   CLEAR     20  17  88 NW3       30.23S
MCCOOK         CLEAR     26  20  77 W8        30.26S WCI  18

...EASTERN NEBRASKA...

CITY           SKY/WX    TMP DP  RH WIND       PRES   REMARKS
NORFOLK        CLEAR     23  20  88 W7        30.20R WCI  15
SO SIOUX CITY  CLEAR     25  19  78 W9        30.19R WCI  15
TEKAMAH        CLEAR     26  20  77 W3        30.21R
COLUMBUS       CLEAR     23  19  85 W3        30.23R
ALBION         CLEAR     25  22  88 NW3       30.21R
OMAHA EPPLEY   CLEAR     29  21  72 NW8       30.20S WCI  21
OFFUTT AFB     CLEAR     29  21  72 NW8       30.20S WCI  21
MILLARD        CLEAR     32  23  70 NW7       30.21R WCI  26
LINCOLN        CLEAR     24  19  81 NW3       30.24R
NEBRASKA CITY  CLEAR     30  25  82 NW7       30.20S WCI  23
BEATRICE       CLEAR     29  26  86 W7        30.23R WCI  22
FALLS CITY     CLEAR     30  25  81 W7        30.22R WCI  23

...NORTHERN KANSAS...

CITY           SKY/WX    TMP DP  RH WIND       PRES   REMARKS
GOODLAND       CLEAR     25  14  63 W8        30.27S WCI  16
HILL CITY      CLEAR     28  21  75 W8        30.27F WCI  20
NORTON         CLEAR     28  19  69 W9        30.25S WCI  20
PHILLIPSBURG   CLEAR     27  21  80 W8        30.26F WCI  18
SMITH CENTER   CLEAR     25  19  80 SW6       30.26F WCI  18
HAYS           CLEAR     25  20  81 W8        30.28F WCI  16
RUSSELL        CLEAR     25  22  88 SW8       30.25F WCI  16
CONCORDIA      CLEAR     33  24  69 W8        30.24S WCI  26
SALINA         CLEAR     34  24  67 SE3       30.27S
TOPEKA         PTCLDY    35  28  75 W5        30.23S WCI  31



USA.gov is the U.S. government's official web portal to all federal, state and local government web resources and services.